Time,TemperatureF,DewpointF,PressureIn,WindDirection,WindDirectionDegrees,WindSpeedMPH,WindSpeedGustMPH,Humidity,HourlyPrecipIn,Conditions,Clouds,dailyrainin,SoftwareType,DateUTC
2013-03-09 00:00:00,33.4,21.1,30.25,NNW,328,5.4,5.8,60,0.00,,,0.00,VWS V14.01,2013-03-09 05:00:00,
2013-03-09 00:01:00,33.4,21.1,30.25,NNW,328,5.4,6.3,60,0.00,,,0.00,VWS V14.01,2013-03-09 05:01:00,
2013-03-09 00:05:00,32.5,20.2,30.34,NW,326,4.9,6.3,60,0.00,,,0.00,VWS V14.01,2013-03-09 05:05:00,
2013-03-09 00:06:00,33.1,20.7,30.25,NW,324,5.4,5.4,60,0.00,,,0.00,VWS V14.01,2013-03-09 05:06:00,
2013-03-09 00:10:00,32.7,20.4,30.37,NW,316,3.6,5.8,60,0.00,,,0.00,VWS V14.01,2013-03-09 05:10:00,
2013-03-09 00:11:00,32.7,20.4,30.31,NNW,332,4.0,5.4,60,0.00,,,0.00,VWS V14.01,2013-03-09 05:11:00,
2013-03-09 00:15:00,32.7,20.4,30.37,NW,324,3.6,6.3,60,0.00,,,0.00,VWS V14.01,2013-03-09 05:15:00,
2013-03-09 00:16:00,32.4,20.0,30.31,NNW,330,5.4,5.4,60,0.00,,,0.00,VWS V14.01,2013-03-09 05:16:00,
2013-03-09 00:20:00,32.2,19.9,30.37,NW,322,4.0,4.9,60,0.00,,,0.00,VWS V14.01,2013-03-09 05:20:00,
2013-03-09 00:21:00,32.4,20.0,30.31,NNW,338,4.9,5.8,60,0.00,,,0.00,VWS V14.01,2013-03-09 05:21:00,
2013-03-09 00:25:00,32.2,19.9,30.40,NNW,327,4.5,5.8,60,0.00,,,0.00,VWS V14.01,2013-03-09 05:25:00,
2013-03-09 00:26:00,32.2,19.9,30.34,NNW,342,4.0,5.4,60,0.00,,,0.00,VWS V14.01,2013-03-09 05:26:00,
2013-03-09 00:30:00,32.4,20.0,30.40,NW,320,5.8,6.3,60,0.00,,,0.00,VWS V14.01,2013-03-09 05:30:00,
2013-03-09 00:31:00,32.0,19.7,30.34,NNW,337,4.9,5.4,60,0.00,,,0.00,VWS V14.01,2013-03-09 05:31:00,
2013-03-09 00:35:00,31.5,19.2,30.40,NW,322,4.5,5.8,60,0.00,,,0.00,VWS V14.01,2013-03-09 05:35:00,
2013-03-09 00:36:00,32.2,19.9,30.34,NNW,339,0.0,0.0,60,0.00,,,0.00,VWS V14.01,2013-03-09 05:36:00,
2013-03-09 00:40:00,30.2,18.0,30.42,NNW,328,2.7,5.4,60,0.00,,,0.00,VWS V14.01,2013-03-09 05:40:00,
2013-03-09 00:41:00,31.8,19.5,30.37,NNW,331,3.6,4.9,60,0.00,,,0.00,VWS V14.01,2013-03-09 05:41:00,
2013-03-09 00:45:00,30.0,17.0,30.42,NNW,329,4.5,4.9,58,0.00,,,0.00,VWS V14.01,2013-03-09 05:45:00,
2013-03-09 00:46:00,32.0,19.7,30.37,NNW,328,5.4,5.4,60,0.00,,,0.00,VWS V14.01,2013-03-09 05:46:00,
2013-03-09 00:50:00,29.5,16.5,30.42,NNW,335,3.6,4.9,58,0.00,,,0.00,VWS V14.01,2013-03-09 05:50:00,
2013-03-09 00:51:00,32.2,19.9,30.37,NNW,328,4.0,4.9,60,0.00,,,0.00,VWS V14.01,2013-03-09 05:51:00,
2013-03-09 00:55:00,28.6,15.7,30.42,NNW,329,4.9,6.3,58,0.00,,,0.00,VWS V14.01,2013-03-09 05:55:00,
2013-03-09 00:56:00,32.4,20.0,30.34,NW,318,4.9,5.4,60,0.00,,,0.00,VWS V14.01,2013-03-09 05:56:00,
2013-03-09 01:00:00,27.9,15.0,30.42,NNW,336,4.0,6.3,58,0.00,,,0.00,VWS V14.01,2013-03-09 06:00:00,
2013-03-09 01:01:00,32.4,20.0,30.34,NNW,327,4.9,5.4,60,0.00,,,0.00,VWS V14.01,2013-03-09 06:01:00,
2013-03-09 01:05:00,28.4,15.5,30.42,NW,324,6.3,7.2,58,0.00,,,0.00,VWS V14.01,2013-03-09 06:05:00,
2013-03-09 01:06:00,32.5,20.2,30.34,NNW,331,5.4,5.4,60,0.00,,,0.00,VWS V14.01,2013-03-09 06:06:00,
2013-03-09 01:10:00,28.0,16.3,30.42,NW,326,5.8,7.6,61,0.00,,,0.00,VWS V14.01,2013-03-09 06:10:00,
2013-03-09 01:11:00,32.7,20.4,30.37,NW,319,3.6,5.4,60,0.00,,,0.00,VWS V14.01,2013-03-09 06:11:00,
2013-03-09 01:15:00,29.1,16.2,30.42,NNW,327,3.1,6.7,58,0.00,,,0.00,VWS V14.01,2013-03-09 06:15:00,
2013-03-09 01:16:00,32.2,19.9,30.37,NW,325,4.0,4.9,60,0.00,,,0.00,VWS V14.01,2013-03-09 06:16:00,
2013-03-09 01:20:00,29.7,17.5,30.42,NNW,338,5.4,6.3,60,0.00,,,0.00,VWS V14.01,2013-03-09 06:20:00,
2013-03-09 01:21:00,32.2,19.9,30.37,NW,324,4.0,5.8,60,0.00,,,0.00,VWS V14.01,2013-03-09 06:21:00,
2013-03-09 01:25:00,29.5,17.3,30.40,NNW,333,5.4,7.6,60,0.00,,,0.00,VWS V14.01,2013-03-09 06:25:00,
2013-03-09 01:26:00,32.0,19.7,30.40,NW,308,3.6,5.4,60,0.00,,,0.00,VWS V14.01,2013-03-09 06:26:00,
2013-03-09 01:30:00,29.5,17.3,30.40,NNW,333,4.0,6.3,60,0.00,,,0.00,VWS V14.01,2013-03-09 06:30:00,
2013-03-09 01:31:00,32.2,19.9,30.40,NW,320,4.0,5.8,60,0.00,,,0.00,VWS V14.01,2013-03-09 06:31:00,
2013-03-09 01:35:00,28.9,16.8,30.40,NNW,340,4.0,6.7,60,0.00,,,0.00,VWS V14.01,2013-03-09 06:35:00,
2013-03-09 01:36:00,31.3,19.0,30.40,NNW,327,4.0,5.4,60,0.00,,,0.00,VWS V14.01,2013-03-09 06:36:00,
2013-03-09 01:40:00,28.8,15.9,30.42,NNW,336,4.9,7.6,58,0.00,,,0.00,VWS V14.01,2013-03-09 06:40:00,
2013-03-09 01:41:00,29.5,16.5,30.42,NW,324,4.0,4.0,58,0.00,,,0.00,VWS V14.01,2013-03-09 06:41:00,
2013-03-09 01:45:00,28.8,15.9,30.42,NNW,328,6.3,8.3,58,0.00,,,0.00,VWS V14.01,2013-03-09 06:45:00,
2013-03-09 01:46:00,30.2,17.2,30.42,NNW,333,4.0,4.5,58,0.00,,,0.00,VWS V14.01,2013-03-09 06:46:00,
2013-03-09 01:50:00,30.2,17.2,30.42,NNW,334,8.7,10.1,58,0.00,,,0.00,VWS V14.01,2013-03-09 06:50:00,
2013-03-09 01:51:00,28.6,15.7,30.42,NNW,335,5.4,5.4,58,0.00,,,0.00,VWS V14.01,2013-03-09 06:51:00,
2013-03-09 01:55:00,31.1,18.9,30.40,NNW,337,6.3,8.7,60,0.00,,,0.00,VWS V14.01,2013-03-09 06:55:00,
2013-03-09 01:56:00,28.0,16.3,30.42,NNW,343,4.0,4.9,61,0.00,,,0.00,VWS V14.01,2013-03-09 06:56:00,
2013-03-09 02:00:00,32.5,20.2,30.40,NNW,333,10.1,12.8,60,0.00,,,0.00,VWS V14.01,2013-03-09 07:00:00,
2013-03-09 02:01:00,27.9,15.0,30.42,NW,320,5.4,5.4,58,0.00,,,0.00,VWS V14.01,2013-03-09 07:01:00,
2013-03-09 02:05:00,32.5,20.2,30.40,NW,321,10.1,12.8,60,0.00,,,0.00,VWS V14.01,2013-03-09 07:05:00,
2013-03-09 02:06:00,28.6,15.7,30.42,NNW,345,4.0,7.6,58,0.00,,,0.00,VWS V14.01,2013-03-09 07:06:00,
2013-03-09 02:10:00,31.5,19.2,30.42,NNW,348,7.6,10.1,60,0.00,,,0.00,VWS V14.01,2013-03-09 07:10:00,
2013-03-09 02:11:00,28.0,15.2,30.42,NNW,330,6.7,6.7,58,0.00,,,0.00,VWS V14.01,2013-03-09 07:11:00,
2013-03-09 02:15:00,30.2,18.0,30.42,NNW,332,5.4,8.1,60,0.00,,,0.00,VWS V14.01,2013-03-09 07:15:00,
2013-03-09 02:16:00,29.1,17.0,30.42,NNW,335,4.0,5.4,60,0.00,,,0.00,VWS V14.01,2013-03-09 07:16:00,
2013-03-09 02:20:00,29.5,17.3,30.42,NNW,331,6.3,6.3,60,0.00,,,0.00,VWS V14.01,2013-03-09 07:20:00,
2013-03-09 02:21:00,29.5,17.3,30.42,NNW,343,5.8,6.3,60,0.00,,,0.00,VWS V14.01,2013-03-09 07:21:00,
2013-03-09 02:25:00,30.6,18.3,30.40,NNW,331,7.6,7.6,60,0.00,,,0.00,VWS V14.01,2013-03-09 07:25:00,
2013-03-09 02:26:00,29.7,17.5,30.40,NNW,335,5.4,5.4,60,0.00,,,0.00,VWS V14.01,2013-03-09 07:26:00,
2013-03-09 02:30:00,31.3,19.0,30.40,NW,321,4.9,8.1,60,0.00,,,0.00,VWS V14.01,2013-03-09 07:30:00,
2013-03-09 02:31:00,29.3,17.1,30.40,NNW,342,2.7,5.4,60,0.00,,,0.00,VWS V14.01,2013-03-09 07:31:00,
2013-03-09 02:35:00,30.7,18.5,30.40,NW,326,5.8,8.1,60,0.00,,,0.00,VWS V14.01,2013-03-09 07:35:00,
2013-03-09 02:36:00,28.8,15.9,30.40,NNW,334,6.3,7.6,58,0.00,,,0.00,VWS V14.01,2013-03-09 07:36:00,
2013-03-09 02:40:00,30.4,18.2,30.42,NNW,330,7.6,7.6,60,0.00,,,0.00,VWS V14.01,2013-03-09 07:40:00,
2013-03-09 02:41:00,28.6,15.7,30.42,NNW,332,5.4,5.8,58,0.00,,,0.00,VWS V14.01,2013-03-09 07:41:00,
2013-03-09 02:45:00,30.9,18.7,30.42,NNW,329,7.2,10.1,60,0.00,,,0.00,VWS V14.01,2013-03-09 07:45:00,
2013-03-09 02:46:00,28.9,16.0,30.42,NW,324,6.3,6.7,58,0.00,,,0.00,VWS V14.01,2013-03-09 07:46:00,
2013-03-09 02:50:00,30.6,18.3,30.42,NW,320,5.4,9.2,60,0.00,,,0.00,VWS V14.01,2013-03-09 07:50:00,
2013-03-09 02:51:00,30.6,18.3,30.42,NNW,329,5.8,8.7,60,0.00,,,0.00,VWS V14.01,2013-03-09 07:51:00,
2013-03-09 02:55:00,30.6,18.3,30.42,NNW,335,8.1,8.3,60,0.00,,,0.00,VWS V14.01,2013-03-09 07:55:00,
2013-03-09 02:56:00,31.5,19.2,30.40,NNW,331,7.2,8.3,60,0.00,,,0.00,VWS V14.01,2013-03-09 07:56:00,
2013-03-09 03:00:00,31.1,18.9,30.42,NNW,332,5.8,8.7,60,0.00,,,0.00,VWS V14.01,2013-03-09 08:00:00,
2013-03-09 03:01:00,32.4,20.0,30.40,NW,322,8.1,10.1,60,0.00,,,0.00,VWS V14.01,2013-03-09 08:01:00,
2013-03-09 03:05:00,31.3,19.0,30.42,NNW,330,5.8,9.2,60,0.00,,,0.00,VWS V14.01,2013-03-09 08:05:00,
2013-03-09 03:06:00,32.2,19.9,30.40,NNW,330,7.6,10.1,60,0.00,,,0.00,VWS V14.01,2013-03-09 08:06:00,
2013-03-09 03:10:00,30.9,18.7,30.42,NW,319,5.4,6.3,60,0.00,,,0.00,VWS V14.01,2013-03-09 08:10:00,
2013-03-09 03:11:00,31.1,18.9,30.42,NNW,333,5.4,8.1,60,0.00,,,0.00,VWS V14.01,2013-03-09 08:11:00,
2013-03-09 03:15:00,30.2,18.0,30.42,NW,320,5.8,6.3,60,0.00,,,0.00,VWS V14.01,2013-03-09 08:15:00,
2013-03-09 03:16:00,30.2,18.0,30.42,NNW,348,3.6,5.8,60,0.00,,,0.00,VWS V14.01,2013-03-09 08:16:00,
2013-03-09 03:20:00,30.6,18.3,30.42,NW,323,5.8,7.6,60,0.00,,,0.00,VWS V14.01,2013-03-09 08:20:00,
2013-03-09 03:21:00,29.8,16.9,30.42,NW,319,5.8,6.3,58,0.00,,,0.00,VWS V14.01,2013-03-09 08:21:00,
2013-03-09 03:25:00,30.7,18.5,30.42,NNW,335,6.3,6.3,60,0.00,,,0.00,VWS V14.01,2013-03-09 08:25:00,
2013-03-09 03:26:00,31.1,18.9,30.40,NW,318,5.8,8.1,60,0.00,,,0.00,VWS V14.01,2013-03-09 08:26:00,
2013-03-09 03:30:00,30.9,18.7,30.42,NW,316,3.6,8.1,60,0.00,,,0.00,VWS V14.01,2013-03-09 08:30:00,
2013-03-09 03:31:00,31.1,18.9,30.40,NW,313,5.8,5.8,60,0.00,,,0.00,VWS V14.01,2013-03-09 08:31:00,
2013-03-09 03:35:00,30.7,18.5,30.42,NNW,329,6.3,8.3,60,0.00,,,0.00,VWS V14.01,2013-03-09 08:35:00,
2013-03-09 03:37:00,30.4,18.2,30.40,NW,324,5.4,7.2,60,0.00,,,0.00,VWS V14.01,2013-03-09 08:37:00,
2013-03-09 03:40:00,30.0,17.0,30.45,NNW,328,6.3,6.7,58,0.00,,,0.00,VWS V14.01,2013-03-09 08:40:00,
2013-03-09 03:42:00,30.7,18.5,30.42,NW,325,10.1,10.1,60,0.00,,,0.00,VWS V14.01,2013-03-09 08:42:00,
2013-03-09 03:45:00,30.6,17.6,30.45,NNW,334,5.4,7.6,58,0.00,,,0.00,VWS V14.01,2013-03-09 08:45:00,
2013-03-09 03:47:00,30.7,18.5,30.42,NW,322,7.6,9.2,60,0.00,,,0.00,VWS V14.01,2013-03-09 08:47:00,
2013-03-09 03:50:00,31.5,19.2,30.45,NW,321,5.4,7.6,60,0.00,,,0.00,VWS V14.01,2013-03-09 08:50:00,
2013-03-09 03:52:00,30.9,18.7,30.42,NNW,337,7.6,8.3,60,0.00,,,0.00,VWS V14.01,2013-03-09 08:52:00,
2013-03-09 03:55:00,31.6,19.4,30.48,NNW,332,6.7,8.1,60,0.00,,,0.00,VWS V14.01,2013-03-09 08:55:00,
2013-03-09 03:57:00,30.6,18.3,30.42,NNW,327,5.8,8.1,60,0.00,,,0.00,VWS V14.01,2013-03-09 08:57:00,
2013-03-09 04:00:00,31.3,19.0,30.48,NNW,334,6.3,7.6,60,0.00,,,0.00,VWS V14.01,2013-03-09 09:00:00,
2013-03-09 04:02:00,31.1,18.9,30.42,NNW,330,6.3,9.2,60,0.00,,,0.00,VWS V14.01,2013-03-09 09:02:00,
2013-03-09 04:05:00,30.6,18.3,30.48,NW,324,2.7,6.3,60,0.00,,,0.00,VWS V14.01,2013-03-09 09:05:00,
2013-03-09 04:07:00,31.3,19.0,30.42,NW,322,4.5,6.3,60,0.00,,,0.00,VWS V14.01,2013-03-09 09:07:00,
2013-03-09 04:10:00,29.5,16.5,30.42,NNW,329,4.5,5.8,58,0.00,,,0.00,VWS V14.01,2013-03-09 09:10:00,
2013-03-09 04:12:00,30.6,18.3,30.42,NW,313,3.6,5.8,60,0.00,,,0.00,VWS V14.01,2013-03-09 09:12:00,
2013-03-09 04:15:00,28.9,16.0,30.42,NNW,334,3.6,4.9,58,0.00,,,0.00,VWS V14.01,2013-03-09 09:15:00,
2013-03-09 04:17:00,30.2,18.0,30.42,NW,322,4.9,6.3,60,0.00,,,0.00,VWS V14.01,2013-03-09 09:17:00,
2013-03-09 04:20:00,29.3,16.4,30.42,NNW,334,5.8,5.8,58,0.00,,,0.00,VWS V14.01,2013-03-09 09:20:00,
2013-03-09 04:22:00,30.7,18.5,30.42,NW,324,5.8,5.8,60,0.00,,,0.00,VWS V14.01,2013-03-09 09:22:00,
2013-03-09 04:25:00,29.5,16.5,30.42,NNW,329,4.9,6.3,58,0.00,,,0.00,VWS V14.01,2013-03-09 09:25:00,
2013-03-09 04:27:00,30.9,18.7,30.42,NW,323,5.8,7.2,60,0.00,,,0.00,VWS V14.01,2013-03-09 09:27:00,
2013-03-09 04:30:00,30.0,17.0,30.42,NW,325,4.9,5.8,58,0.00,,,0.00,VWS V14.01,2013-03-09 09:30:00,
2013-03-09 04:32:00,30.9,18.7,30.42,NW,324,5.8,6.3,60,0.00,,,0.00,VWS V14.01,2013-03-09 09:32:00,
2013-03-09 04:35:00,29.5,16.5,30.42,NNW,337,3.6,5.4,58,0.00,,,0.00,VWS V14.01,2013-03-09 09:35:00,
2013-03-09 04:37:00,30.2,18.0,30.42,NNW,332,5.4,6.3,60,0.00,,,0.00,VWS V14.01,2013-03-09 09:37:00,
2013-03-09 04:40:00,27.7,14.9,30.45,NNW,345,3.1,5.4,58,0.00,,,0.00,VWS V14.01,2013-03-09 09:40:00,
2013-03-09 04:42:00,29.8,16.9,30.45,NW,325,6.3,6.3,58,0.00,,,0.00,VWS V14.01,2013-03-09 09:42:00,
2013-03-09 04:45:00,28.4,15.5,30.45,NNW,334,6.3,6.7,58,0.00,,,0.00,VWS V14.01,2013-03-09 09:45:00,
2013-03-09 04:47:00,30.9,18.7,30.45,NW,323,5.8,7.2,60,0.00,,,0.00,VWS V14.01,2013-03-09 09:47:00,
2013-03-09 04:50:00,30.4,17.4,30.45,NNW,329,5.4,9.2,58,0.00,,,0.00,VWS V14.01,2013-03-09 09:50:00,
2013-03-09 04:52:00,31.8,19.5,30.48,NNW,328,5.8,8.1,60,0.00,,,0.00,VWS V14.01,2013-03-09 09:52:00,
2013-03-09 04:55:00,29.8,16.9,30.48,NNW,330,5.8,8.1,58,0.00,,,0.00,VWS V14.01,2013-03-09 09:55:00,
2013-03-09 04:57:00,31.3,19.0,30.48,NNW,336,5.8,6.7,60,0.00,,,0.00,VWS V14.01,2013-03-09 09:57:00,
2013-03-09 05:00:00,29.3,16.4,30.48,NW,319,3.1,6.3,58,0.00,,,0.00,VWS V14.01,2013-03-09 10:00:00,
2013-03-09 05:02:00,31.1,18.9,30.48,NNW,331,5.8,6.3,60,0.00,,,0.00,VWS V14.01,2013-03-09 10:02:00,
2013-03-09 05:05:00,28.2,15.4,30.48,NNW,343,0.0,4.0,58,0.00,,,0.00,VWS V14.01,2013-03-09 10:05:00,
2013-03-09 05:07:00,29.8,16.9,30.42,NNW,332,4.0,5.4,58,0.00,,,0.00,VWS V14.01,2013-03-09 10:07:00,
2013-03-09 05:10:00,26.8,14.0,30.48,NNW,332,2.7,6.3,58,0.00,,,0.00,VWS V14.01,2013-03-09 10:10:00,
2013-03-09 05:12:00,29.1,16.2,30.42,NNW,337,3.1,4.9,58,0.00,,,0.00,VWS V14.01,2013-03-09 10:12:00,
2013-03-09 05:15:00,25.2,12.9,30.48,North,357,0.0,2.7,59,0.00,,,0.00,VWS V14.01,2013-03-09 10:15:00,
2013-03-09 05:17:00,28.9,16.0,30.42,NNW,329,3.1,5.8,58,0.00,,,0.00,VWS V14.01,2013-03-09 10:17:00,
2013-03-09 05:20:00,24.3,12.0,30.48,North,357,0.0,0.0,59,0.00,,,0.00,VWS V14.01,2013-03-09 10:20:00,
2013-03-09 05:22:00,29.7,16.7,30.42,NNW,329,4.0,6.3,58,0.00,,,0.00,VWS V14.01,2013-03-09 10:22:00,
2013-03-09 05:25:00,23.7,11.5,30.51,North,3,0.0,0.0,59,0.00,,,0.00,VWS V14.01,2013-03-09 10:25:00,
2013-03-09 05:27:00,29.8,16.9,30.42,NW,319,4.0,5.4,58,0.00,,,0.00,VWS V14.01,2013-03-09 10:27:00,
2013-03-09 05:30:00,23.5,11.3,30.51,North,2,0.0,0.0,59,0.00,,,0.00,VWS V14.01,2013-03-09 10:30:00,
2013-03-09 05:32:00,30.0,17.0,30.42,NNW,332,4.0,5.4,58,0.00,,,0.00,VWS V14.01,2013-03-09 10:32:00,
2013-03-09 05:35:00,23.5,11.3,30.51,North,3,0.0,0.0,59,0.00,,,0.00,VWS V14.01,2013-03-09 10:35:00,
2013-03-09 05:37:00,28.9,16.0,30.45,North,0,0.0,3.6,58,0.00,,,0.00,VWS V14.01,2013-03-09 10:37:00,
2013-03-09 05:40:00,24.1,11.8,30.51,North,3,0.0,0.0,59,0.00,,,0.00,VWS V14.01,2013-03-09 10:40:00,
2013-03-09 05:42:00,27.1,14.3,30.45,NNW,331,6.7,6.7,58,0.00,,,0.00,VWS V14.01,2013-03-09 10:42:00,
2013-03-09 05:45:00,25.5,13.2,30.51,North,3,0.0,0.0,59,0.00,,,0.00,VWS V14.01,2013-03-09 10:45:00,
2013-03-09 05:47:00,30.2,17.2,30.45,NNW,334,6.7,7.6,58,0.00,,,0.00,VWS V14.01,2013-03-09 10:47:00,
2013-03-09 05:50:00,26.6,14.2,30.51,North,3,0.0,0.0,59,0.00,,,0.00,VWS V14.01,2013-03-09 10:50:00,
2013-03-09 05:52:00,30.2,17.2,30.48,NW,326,5.4,6.3,58,0.00,,,0.00,VWS V14.01,2013-03-09 10:52:00,
2013-03-09 05:55:00,27.1,14.3,30.51,North,3,0.0,0.0,58,0.00,,,0.00,VWS V14.01,2013-03-09 10:55:00,
2013-03-09 05:57:00,29.7,16.7,30.48,NNW,331,3.1,6.3,58,0.00,,,0.00,VWS V14.01,2013-03-09 10:57:00,
2013-03-09 06:00:00,28.2,15.4,30.51,North,3,0.0,0.0,58,0.00,,,0.00,VWS V14.01,2013-03-09 11:00:00,
2013-03-09 06:02:00,28.8,15.9,30.48,North,0,0.0,4.0,58,0.00,,,0.00,VWS V14.01,2013-03-09 11:02:00,
2013-03-09 06:05:00,30.2,18.0,30.51,NNW,334,3.1,4.9,60,0.00,,,0.00,VWS V14.01,2013-03-09 11:05:00,
2013-03-09 06:07:00,27.3,14.5,30.48,NNW,331,2.7,6.3,58,0.00,,,0.00,VWS V14.01,2013-03-09 11:07:00,
2013-03-09 06:10:00,32.0,19.7,30.51,NNW,335,3.6,4.0,60,0.00,,,0.00,VWS V14.01,2013-03-09 11:10:00,
2013-03-09 06:12:00,26.1,13.7,30.48,NNW,332,0.0,2.7,59,0.00,,,0.00,VWS V14.01,2013-03-09 11:12:00,
2013-03-09 06:15:00,32.9,20.5,30.51,NW,326,3.1,4.0,60,0.00,,,0.00,VWS V14.01,2013-03-09 11:15:00,
2013-03-09 06:17:00,24.4,12.2,30.48,North,357,0.0,0.0,59,0.00,,,0.00,VWS V14.01,2013-03-09 11:17:00,
2013-03-09 06:20:00,33.4,21.1,30.51,NNW,332,3.6,5.8,60,0.00,,,0.00,VWS V14.01,2013-03-09 11:20:00,
2013-03-09 06:22:00,23.9,11.7,30.51,North,3,0.0,0.0,59,0.00,,,0.00,VWS V14.01,2013-03-09 11:22:00,
2013-03-09 06:25:00,34.3,21.9,30.48,NNW,329,5.4,7.6,60,0.00,,,0.00,VWS V14.01,2013-03-09 11:25:00,
2013-03-09 06:27:00,23.7,11.5,30.51,North,3,0.0,0.0,59,0.00,,,0.00,VWS V14.01,2013-03-09 11:27:00,
2013-03-09 06:30:00,35.2,22.8,30.48,NW,325,4.0,5.4,60,0.00,,,0.00,VWS V14.01,2013-03-09 11:30:00,
2013-03-09 06:32:00,23.5,11.3,30.51,North,2,0.0,0.0,59,0.00,,,0.00,VWS V14.01,2013-03-09 11:32:00,
2013-03-09 06:35:00,35.8,22.9,30.48,NNW,327,3.6,6.3,59,0.00,,,0.00,VWS V14.01,2013-03-09 11:35:00,
2013-03-09 06:37:00,23.7,11.5,30.51,North,2,0.0,0.0,59,0.00,,,0.00,VWS V14.01,2013-03-09 11:37:00,
2013-03-09 06:40:00,36.1,23.2,30.45,NNW,336,3.1,6.3,59,0.00,,,0.00,VWS V14.01,2013-03-09 11:40:00,
2013-03-09 06:42:00,24.8,12.5,30.51,North,3,0.0,0.0,59,0.00,,,0.00,VWS V14.01,2013-03-09 11:42:00,
2013-03-09 06:45:00,36.5,23.5,30.45,NW,319,0.0,5.8,59,0.00,,,0.00,VWS V14.01,2013-03-09 11:45:00,
2013-03-09 06:47:00,26.2,13.9,30.51,North,2,0.0,0.0,59,0.00,,,0.00,VWS V14.01,2013-03-09 11:47:00,
2013-03-09 06:50:00,36.9,23.9,30.45,NNW,342,3.1,5.4,59,0.00,,,0.00,VWS V14.01,2013-03-09 11:50:00,
2013-03-09 06:52:00,27.0,14.2,30.51,North,2,0.0,0.0,58,0.00,,,0.00,VWS V14.01,2013-03-09 11:52:00,
2013-03-09 06:55:00,37.0,24.1,30.48,NW,325,2.7,5.8,59,0.00,,,0.00,VWS V14.01,2013-03-09 11:55:00,
2013-03-09 06:57:00,27.9,15.0,30.51,North,3,0.0,0.0,58,0.00,,,0.00,VWS V14.01,2013-03-09 11:57:00,
2013-03-09 07:00:00,37.6,24.6,30.48,NNW,330,4.0,6.3,59,0.00,,,0.00,VWS V14.01,2013-03-09 12:00:00,
2013-03-09 07:02:00,29.3,17.1,30.51,WNW,284,0.0,4.0,60,0.00,,,0.00,VWS V14.01,2013-03-09 12:02:00,
2013-03-09 07:05:00,37.9,24.9,30.48,NNW,330,8.1,10.5,59,0.00,,,0.00,VWS V14.01,2013-03-09 12:05:00,
2013-03-09 07:07:00,31.1,18.9,30.51,NNW,334,0.0,3.1,60,0.00,,,0.00,VWS V14.01,2013-03-09 12:07:00,
2013-03-09 07:10:00,38.1,25.1,30.54,NW,319,5.4,8.7,59,0.00,,,0.00,VWS V14.01,2013-03-09 12:10:00,
2013-03-09 07:12:00,32.5,20.2,30.51,NNW,348,4.0,4.0,60,0.00,,,0.00,VWS V14.01,2013-03-09 12:12:00,
2013-03-09 07:15:00,39.0,25.9,30.54,NNW,329,5.8,10.1,59,0.00,,,0.00,VWS V14.01,2013-03-09 12:15:00,
2013-03-09 07:17:00,33.3,20.9,30.51,NNW,341,3.6,4.9,60,0.00,,,0.00,VWS V14.01,2013-03-09 12:17:00,
2013-03-09 07:20:00,39.9,26.4,30.54,NW,323,0.0,7.6,58,0.00,,,0.00,VWS V14.01,2013-03-09 12:20:00,
2013-03-09 07:22:00,34.2,21.7,30.48,NNW,333,4.0,5.4,60,0.00,,,0.00,VWS V14.01,2013-03-09 12:22:00,
2013-03-09 07:25:00,41.0,27.4,30.51,NNE,23,3.1,6.3,58,0.00,,,0.00,VWS V14.01,2013-03-09 12:25:00,
2013-03-09 07:28:00,34.9,22.4,30.48,NW,318,4.0,5.4,60,0.00,,,0.00,VWS V14.01,2013-03-09 12:28:00,
2013-03-09 07:30:00,42.4,28.7,30.51,NE,55,2.7,4.9,58,0.00,,,0.00,VWS V14.01,2013-03-09 12:30:00,
2013-03-09 07:33:00,35.6,22.7,30.48,NNW,328,3.1,6.3,59,0.00,,,0.00,VWS V14.01,2013-03-09 12:33:00,
2013-03-09 07:35:00,44.4,30.6,30.51,NE,56,3.1,3.1,58,0.00,,,0.00,VWS V14.01,2013-03-09 12:35:00,
2013-03-09 07:38:00,36.1,23.2,30.45,NNW,341,6.3,6.3,59,0.00,,,0.00,VWS V14.01,2013-03-09 12:38:00,
2013-03-09 07:40:00,42.8,29.1,30.48,North,0,4.0,6.3,58,0.00,,,0.00,VWS V14.01,2013-03-09 12:40:00,
2013-03-09 07:43:00,36.3,23.4,30.45,NNW,327,4.5,5.8,59,0.00,,,0.00,VWS V14.01,2013-03-09 12:43:00,
2013-03-09 07:45:00,43.5,29.7,30.48,North,1,2.7,10.1,58,0.00,,,0.00,VWS V14.01,2013-03-09 12:45:00,
2013-03-09 07:48:00,36.7,23.7,30.45,NNW,327,4.0,5.4,59,0.00,,,0.00,VWS V14.01,2013-03-09 12:48:00,
2013-03-09 07:50:00,43.3,29.6,30.48,NNW,334,5.4,6.3,58,0.00,,,0.00,VWS V14.01,2013-03-09 12:50:00,
2013-03-09 07:53:00,37.0,24.1,30.48,NNW,334,5.4,5.4,59,0.00,,,0.00,VWS V14.01,2013-03-09 12:53:00,
2013-03-09 07:55:00,41.5,27.9,30.45,NNW,327,6.3,11.0,58,0.00,,,0.00,VWS V14.01,2013-03-09 12:55:00,
2013-03-09 07:58:00,37.4,24.4,30.48,NNW,328,3.1,5.4,59,0.00,,,0.00,VWS V14.01,2013-03-09 12:58:00,
2013-03-09 08:00:00,40.1,26.5,30.45,NW,324,8.1,9.2,58,0.00,,,0.00,VWS V14.01,2013-03-09 13:00:00,
2013-03-09 08:03:00,37.9,24.9,30.48,NW,323,2.7,8.1,59,0.00,,,0.00,VWS V14.01,2013-03-09 13:03:00,
2013-03-09 08:05:00,40.3,26.7,30.45,NNW,338,4.0,13.2,58,0.00,,,0.00,VWS V14.01,2013-03-09 13:05:00,
2013-03-09 08:08:00,38.1,25.1,30.54,WNW,285,8.7,8.7,59,0.00,,,0.00,VWS V14.01,2013-03-09 13:08:00,
2013-03-09 08:10:00,40.5,26.9,30.40,NW,317,3.1,13.2,58,0.00,,,0.00,VWS V14.01,2013-03-09 13:10:00,
2013-03-09 08:13:00,38.7,25.6,30.54,NNW,330,5.8,5.8,59,0.00,,,0.00,VWS V14.01,2013-03-09 13:13:00,
2013-03-09 08:15:00,41.7,28.0,30.40,NW,321,0.0,8.3,58,0.00,,,0.00,VWS V14.01,2013-03-09 13:15:00,
2013-03-09 08:18:00,39.4,25.9,30.54,NNW,327,5.8,7.6,58,0.00,,,0.00,VWS V14.01,2013-03-09 13:18:00,
2013-03-09 08:20:00,41.2,27.5,30.40,NNW,339,11.0,11.0,58,0.00,,,0.00,VWS V14.01,2013-03-09 13:20:00,
2013-03-09 08:23:00,40.6,27.0,30.51,North,6,5.4,6.3,58,0.00,,,0.00,VWS V14.01,2013-03-09 13:23:00,
2013-03-09 08:25:00,41.9,28.2,30.45,NW,307,4.0,11.0,58,0.00,,,0.00,VWS V14.01,2013-03-09 13:25:00,
2013-03-09 08:28:00,42.1,28.4,30.51,NW,318,4.9,4.9,58,0.00,,,0.00,VWS V14.01,2013-03-09 13:28:00,
2013-03-09 08:30:00,42.3,28.5,30.45,NNW,328,4.0,8.7,58,0.00,,,0.00,VWS V14.01,2013-03-09 13:30:00,
2013-03-09 08:33:00,43.7,29.9,30.51,NE,38,0.0,2.7,58,0.00,,,0.00,VWS V14.01,2013-03-09 13:33:00,
2013-03-09 08:35:00,41.7,28.0,30.45,NW,318,6.3,11.0,58,0.00,,,0.00,VWS V14.01,2013-03-09 13:35:00,
2013-03-09 08:38:00,43.9,30.1,30.48,ENE,59,3.1,5.4,58,0.00,,,0.00,VWS V14.01,2013-03-09 13:38:00,
2013-03-09 08:40:00,42.1,28.4,30.42,NW,319,8.1,11.0,58,0.00,,,0.00,VWS V14.01,2013-03-09 13:40:00,
2013-03-09 08:43:00,43.5,29.7,30.48,NNE,29,3.1,10.1,58,0.00,,,0.00,VWS V14.01,2013-03-09 13:43:00,
2013-03-09 08:45:00,42.4,28.7,30.42,NNW,344,5.4,11.0,58,0.00,,,0.00,VWS V14.01,2013-03-09 13:45:00,
2013-03-09 08:48:00,43.3,29.6,30.48,NNW,341,2.7,5.8,58,0.00,,,0.00,VWS V14.01,2013-03-09 13:48:00,
2013-03-09 08:50:00,42.4,28.7,30.42,NNW,330,7.6,10.5,58,0.00,,,0.00,VWS V14.01,2013-03-09 13:50:00,
2013-03-09 08:53:00,41.2,27.5,30.45,North,6,6.3,11.0,58,0.00,,,0.00,VWS V14.01,2013-03-09 13:53:00,
2013-03-09 08:55:00,42.6,28.9,30.42,NNW,329,4.9,10.5,58,0.00,,,0.00,VWS V14.01,2013-03-09 13:55:00,
2013-03-09 08:58:00,40.3,26.7,30.45,NW,321,6.3,9.2,58,0.00,,,0.00,VWS V14.01,2013-03-09 13:58:00,
2013-03-09 09:00:00,42.8,29.1,30.42,NNW,327,8.7,10.5,58,0.00,,,0.00,VWS V14.01,2013-03-09 14:00:00,
2013-03-09 09:03:00,40.1,26.5,30.45,North,0,5.4,13.2,58,0.00,,,0.00,VWS V14.01,2013-03-09 14:03:00,
2013-03-09 09:05:00,42.8,29.1,30.42,NNW,341,5.4,8.7,58,0.00,,,0.00,VWS V14.01,2013-03-09 14:05:00,
2013-03-09 09:08:00,40.5,26.9,30.40,NW,320,8.1,8.7,58,0.00,,,0.00,VWS V14.01,2013-03-09 14:08:00,
2013-03-09 09:10:00,43.3,29.6,30.45,NW,325,5.8,8.3,58,0.00,,,0.00,VWS V14.01,2013-03-09 14:10:00,
2013-03-09 09:13:00,41.0,27.4,30.40,NW,310,5.4,5.8,58,0.00,,,0.00,VWS V14.01,2013-03-09 14:13:00,
2013-03-09 09:15:00,43.9,30.1,30.45,NNW,329,10.1,10.1,58,0.00,,,0.00,VWS V14.01,2013-03-09 14:15:00,
2013-03-09 09:18:00,41.2,27.5,30.40,NNW,329,5.8,11.0,58,0.00,,,0.00,VWS V14.01,2013-03-09 14:18:00,
2013-03-09 09:20:00,44.1,30.2,30.45,NNW,331,7.6,10.1,58,0.00,,,0.00,VWS V14.01,2013-03-09 14:20:00,
2013-03-09 09:23:00,41.7,28.0,30.45,NNW,329,2.7,11.0,58,0.00,,,0.00,VWS V14.01,2013-03-09 14:23:00,
2013-03-09 09:25:00,44.2,30.4,30.45,NNW,332,3.1,10.5,58,0.00,,,0.00,VWS V14.01,2013-03-09 14:25:00,
2013-03-09 09:28:00,42.4,28.7,30.45,NNW,332,6.3,8.7,58,0.00,,,0.00,VWS V14.01,2013-03-09 14:28:00,
2013-03-09 09:30:00,45.0,30.7,30.45,NNW,329,12.3,12.3,57,0.00,,,0.00,VWS V14.01,2013-03-09 14:30:00,
2013-03-09 09:33:00,42.3,28.5,30.45,NW,320,10.1,11.0,58,0.00,,,0.00,VWS V14.01,2013-03-09 14:33:00,
2013-03-09 09:35:00,46.4,32.0,30.45,NW,326,3.6,12.3,57,0.00,,,0.00,VWS V14.01,2013-03-09 14:35:00,
2013-03-09 09:38:00,41.7,28.0,30.42,NW,320,8.3,10.5,58,0.00,,,0.00,VWS V14.01,2013-03-09 14:38:00,
2013-03-09 09:40:00,48.4,33.4,30.57,NNW,340,2.7,8.1,56,0.00,,,0.00,VWS V14.01,2013-03-09 14:40:00,
2013-03-09 09:43:00,42.8,29.1,30.42,NW,320,8.3,11.0,58,0.00,,,0.00,VWS V14.01,2013-03-09 14:43:00,
2013-03-09 09:45:00,49.3,34.3,30.57,NNW,330,3.6,7.2,56,0.00,,,0.00,VWS V14.01,2013-03-09 14:45:00,
2013-03-09 09:48:00,42.6,28.9,30.42,NNE,25,8.1,8.1,58,0.00,,,0.00,VWS V14.01,2013-03-09 14:48:00,
2013-03-09 09:50:00,48.6,33.6,30.57,North,8,3.1,12.8,56,0.00,,,0.00,VWS V14.01,2013-03-09 14:50:00,
2013-03-09 09:53:00,42.6,28.9,30.42,NE,45,4.9,10.5,58,0.00,,,0.00,VWS V14.01,2013-03-09 14:53:00,
2013-03-09 09:55:00,52.0,36.8,30.57,North,357,3.1,8.1,56,0.00,,,0.00,VWS V14.01,2013-03-09 14:55:00,
2013-03-09 09:58:00,42.8,29.1,30.42,NW,309,10.5,10.5,58,0.00,,,0.00,VWS V14.01,2013-03-09 14:58:00,
2013-03-09 10:00:00,50.0,34.9,30.57,NW,319,5.4,7.6,56,0.00,,,0.00,VWS V14.01,2013-03-09 15:00:00,
2013-03-09 10:03:00,42.8,29.1,30.42,NW,325,5.4,8.7,58,0.00,,,0.00,VWS V14.01,2013-03-09 15:03:00,
2013-03-09 10:05:00,54.7,38.8,30.57,NNW,330,5.8,8.1,55,0.00,,,0.00,VWS V14.01,2013-03-09 15:05:00,
2013-03-09 10:08:00,43.3,29.6,30.45,NNW,337,5.4,6.3,58,0.00,,,0.00,VWS V14.01,2013-03-09 15:08:00,
2013-03-09 10:10:00,50.2,35.1,30.63,NNE,23,5.4,8.1,56,0.00,,,0.00,VWS V14.01,2013-03-09 15:10:00,
2013-03-09 10:13:00,43.9,30.1,30.45,NNW,335,8.3,9.6,58,0.00,,,0.00,VWS V14.01,2013-03-09 15:13:00,
2013-03-09 10:15:00,50.2,35.1,30.63,NNW,345,5.8,12.8,56,0.00,,,0.00,VWS V14.01,2013-03-09 15:15:00,
2013-03-09 10:18:00,44.1,30.2,30.45,NW,324,8.7,10.1,58,0.00,,,0.00,VWS V14.01,2013-03-09 15:18:00,
2013-03-09 10:20:00,48.9,33.9,30.63,NE,52,5.4,10.5,56,0.00,,,0.00,VWS V14.01,2013-03-09 15:20:00,
2013-03-09 10:23:00,44.2,30.4,30.45,NW,325,10.5,10.5,58,0.00,,,0.00,VWS V14.01,2013-03-09 15:23:00,
2013-03-09 10:25:00,49.5,34.4,30.69,North,357,4.0,11.9,56,0.00,,,0.00,VWS V14.01,2013-03-09 15:25:00,
2013-03-09 10:28:00,45.3,31.0,30.45,NNW,334,5.4,10.1,57,0.00,,,0.00,VWS V14.01,2013-03-09 15:28:00,
2013-03-09 10:30:00,55.4,39.5,30.69,North,0,2.7,10.1,55,0.00,,,0.00,VWS V14.01,2013-03-09 15:30:00,
2013-03-09 10:33:00,46.0,31.7,30.45,NNW,329,6.3,12.3,57,0.00,,,0.00,VWS V14.01,2013-03-09 15:33:00,
2013-03-09 10:35:00,50.9,35.8,30.69,NNW,328,7.6,11.4,56,0.00,,,0.00,VWS V14.01,2013-03-09 15:35:00,
2013-03-09 10:38:00,47.8,33.4,30.57,NNW,337,3.6,6.3,57,0.00,,,0.00,VWS V14.01,2013-03-09 15:38:00,
2013-03-09 10:40:00,55.0,39.2,30.72,NE,54,3.1,10.1,55,0.00,,,0.00,VWS V14.01,2013-03-09 15:40:00,
2013-03-09 10:43:00,49.3,34.3,30.57,NNE,19,3.1,7.2,56,0.00,,,0.00,VWS V14.01,2013-03-09 15:43:00,
2013-03-09 10:45:00,55.8,39.8,30.72,NNW,337,2.2,7.6,55,0.00,,,0.00,VWS V14.01,2013-03-09 15:45:00,
2013-03-09 10:48:00,49.6,34.6,30.57,NW,324,0.0,12.8,56,0.00,,,0.00,VWS V14.01,2013-03-09 15:48:00,
2013-03-09 10:50:00,52.5,37.3,30.72,NNW,336,5.8,12.3,56,0.00,,,0.00,VWS V14.01,2013-03-09 15:50:00,
2013-03-09 10:53:00,49.8,34.8,30.57,North,6,2.2,8.1,56,0.00,,,0.00,VWS V14.01,2013-03-09 15:53:00,
2013-03-09 10:55:00,53.1,37.8,30.72,NW,325,4.9,11.0,56,0.00,,,0.00,VWS V14.01,2013-03-09 15:55:00,
2013-03-09 10:58:00,52.2,37.0,30.57,NE,44,2.7,7.6,56,0.00,,,0.00,VWS V14.01,2013-03-09 15:58:00,
2013-03-09 11:00:00,55.2,39.3,30.72,NW,321,8.7,8.7,55,0.00,,,0.00,VWS V14.01,2013-03-09 16:00:00,
2013-03-09 11:03:00,54.9,39.0,30.57,North,6,2.7,8.1,55,0.00,,,0.00,VWS V14.01,2013-03-09 16:03:00,
2013-03-09 11:05:00,52.2,37.0,30.72,NNE,27,8.1,10.1,56,0.00,,,0.00,VWS V14.01,2013-03-09 16:05:00,
2013-03-09 11:08:00,51.1,36.0,30.63,South,172,8.1,8.1,56,0.00,,,0.00,VWS V14.01,2013-03-09 16:08:00,
2013-03-09 11:10:00,53.1,37.8,30.72,NNW,332,5.8,12.8,56,0.00,,,0.00,VWS V14.01,2013-03-09 16:10:00,
2013-03-09 11:13:00,51.4,36.3,30.63,NNE,18,6.3,7.6,56,0.00,,,0.00,VWS V14.01,2013-03-09 16:13:00,
2013-03-09 11:15:00,53.1,37.8,30.72,NW,324,7.6,11.9,56,0.00,,,0.00,VWS V14.01,2013-03-09 16:15:00,
2013-03-09 11:18:00,47.8,33.4,30.63,NNE,18,8.3,10.5,57,0.00,,,0.00,VWS V14.01,2013-03-09 16:18:00,
2013-03-09 11:20:00,53.8,38.0,30.72,North,9,7.6,10.5,55,0.00,,,0.00,VWS V14.01,2013-03-09 16:20:00,
2013-03-09 11:23:00,48.9,33.9,30.69,NW,314,2.7,11.9,56,0.00,,,0.00,VWS V14.01,2013-03-09 16:23:00,
2013-03-09 11:25:00,57.2,40.7,30.72,NW,319,8.7,8.7,54,0.00,,,0.00,VWS V14.01,2013-03-09 16:25:00,
2013-03-09 11:28:00,54.1,38.3,30.69,NNW,344,3.6,10.1,55,0.00,,,0.00,VWS V14.01,2013-03-09 16:28:00,
2013-03-09 11:30:00,55.8,39.8,30.72,NNW,327,6.3,12.3,55,0.00,,,0.00,VWS V14.01,2013-03-09 16:30:00,
2013-03-09 11:33:00,50.9,35.8,30.69,WNW,293,3.6,8.7,56,0.00,,,0.00,VWS V14.01,2013-03-09 16:33:00,
2013-03-09 11:35:00,59.4,42.7,30.72,ENE,73,3.6,11.0,54,0.00,,,0.00,VWS V14.01,2013-03-09 16:35:00,
2013-03-09 11:38:00,52.2,37.0,30.72,NE,45,3.6,10.1,56,0.00,,,0.00,VWS V14.01,2013-03-09 16:38:00,
2013-03-09 11:40:00,62.8,45.4,30.72,ENE,72,5.8,6.3,53,0.00,,,0.00,VWS V14.01,2013-03-09 16:40:00,
2013-03-09 11:43:00,55.6,39.7,30.72,NW,326,7.6,7.6,55,0.00,,,0.00,VWS V14.01,2013-03-09 16:43:00,
2013-03-09 11:45:00,64.6,47.1,30.72,NE,50,3.6,8.7,53,0.00,,,0.00,VWS V14.01,2013-03-09 16:45:00,
2013-03-09 11:49:00,53.8,38.0,30.72,NW,325,8.3,10.5,55,0.00,,,0.00,VWS V14.01,2013-03-09 16:49:00,
2013-03-09 11:50:00,67.1,48.9,30.72,North,357,4.0,8.7,52,0.00,,,0.00,VWS V14.01,2013-03-09 16:50:00,
2013-03-09 11:54:00,53.6,37.8,30.72,NW,324,6.3,11.0,55,0.00,,,0.00,VWS V14.01,2013-03-09 16:54:00,
2013-03-09 11:55:00,61.2,44.4,30.72,NNW,330,0.0,5.8,54,0.00,,,0.00,VWS V14.01,2013-03-09 16:55:00,
2013-03-09 11:59:00,59.9,43.2,30.72,NNW,332,4.0,7.6,54,0.00,,,0.00,VWS V14.01,2013-03-09 16:59:00,
2013-03-09 12:00:00,63.7,46.2,30.72,NW,318,5.8,7.2,53,0.00,,,0.00,VWS V14.01,2013-03-09 17:00:00,
2013-03-09 12:04:00,54.0,38.2,30.72,NNW,331,8.3,10.1,55,0.00,,,0.00,VWS V14.01,2013-03-09 17:04:00,
2013-03-09 12:05:00,59.9,43.2,30.72,ENE,59,3.6,8.1,54,0.00,,,0.00,VWS V14.01,2013-03-09 17:05:00,
2013-03-09 12:09:00,52.3,37.1,30.72,NNW,334,4.9,12.8,56,0.00,,,0.00,VWS V14.01,2013-03-09 17:09:00,
2013-03-09 12:10:00,58.5,41.9,30.72,NNE,25,4.0,8.3,54,0.00,,,0.00,VWS V14.01,2013-03-09 17:10:00,
2013-03-09 12:13:00,53.1,37.8,30.72,NNW,333,10.1,11.9,56,0.00,,,0.00,VWS V14.01,2013-03-09 17:13:00,
2013-03-09 12:15:00,57.9,41.4,30.72,NNW,338,0.0,7.6,54,0.00,,,0.00,VWS V14.01,2013-03-09 17:15:00,
2013-03-09 12:19:00,53.6,37.8,30.72,NW,325,7.6,10.5,55,0.00,,,0.00,VWS V14.01,2013-03-09 17:19:00,
2013-03-09 12:20:00,59.7,43.1,30.72,ENE,59,5.8,6.3,54,0.00,,,0.00,VWS V14.01,2013-03-09 17:20:00,
2013-03-09 12:24:00,57.2,40.7,30.72,NNW,332,7.6,8.7,54,0.00,,,0.00,VWS V14.01,2013-03-09 17:24:00,
2013-03-09 12:25:00,61.3,44.6,30.72,ENE,63,4.0,7.6,54,0.00,,,0.00,VWS V14.01,2013-03-09 17:25:00,
2013-03-09 12:29:00,54.1,38.3,30.72,NW,317,5.4,12.3,55,0.00,,,0.00,VWS V14.01,2013-03-09 17:29:00,
2013-03-09 12:30:00,58.5,41.9,30.72,NNE,12,4.0,8.3,54,0.00,,,0.00,VWS V14.01,2013-03-09 17:30:00,
2013-03-09 12:34:00,57.2,40.7,30.72,NNW,348,3.6,11.0,54,0.00,,,0.00,VWS V14.01,2013-03-09 17:34:00,
2013-03-09 12:35:00,61.9,45.1,30.72,SE,144,0.0,6.3,54,0.00,,,0.00,VWS V14.01,2013-03-09 17:35:00,
2013-03-09 12:39:00,61.0,44.2,30.72,NNW,329,3.6,6.3,54,0.00,,,0.00,VWS V14.01,2013-03-09 17:39:00,
2013-03-09 12:40:00,63.3,45.9,30.72,ESE,115,3.1,5.8,53,0.00,,,0.00,VWS V14.01,2013-03-09 17:40:00,
2013-03-09 12:44:00,62.4,45.6,30.72,ENE,57,5.4,8.7,54,0.00,,,0.00,VWS V14.01,2013-03-09 17:44:00,
2013-03-09 12:45:00,67.1,48.9,30.72,East,85,2.7,6.3,52,0.00,,,0.00,VWS V14.01,2013-03-09 17:45:00,
2013-03-09 12:49:00,63.3,45.9,30.72,NNE,18,0.0,8.7,53,0.00,,,0.00,VWS V14.01,2013-03-09 17:49:00,
2013-03-09 12:50:00,62.2,45.4,30.72,NNE,18,5.4,9.2,54,0.00,,,0.00,VWS V14.01,2013-03-09 17:50:00,
2013-03-09 12:54:00,61.0,44.2,30.72,North,357,0.0,5.8,54,0.00,,,0.00,VWS V14.01,2013-03-09 17:54:00,
2013-03-09 12:55:00,57.2,40.7,30.72,North,11,3.1,5.8,54,0.00,,,0.00,VWS V14.01,2013-03-09 17:55:00,
2013-03-09 12:59:00,61.0,44.2,30.72,North,0,2.2,7.2,54,0.00,,,0.00,VWS V14.01,2013-03-09 17:59:00,
2013-03-09 13:00:00,61.2,44.4,30.72,North,3,0.0,6.3,54,0.00,,,0.00,VWS V14.01,2013-03-09 18:00:00,
2013-03-09 13:04:00,56.1,40.2,30.72,NW,317,4.9,7.6,55,0.00,,,0.00,VWS V14.01,2013-03-09 18:04:00,
2013-03-09 13:05:00,56.3,40.4,30.72,NNE,29,5.8,6.3,55,0.00,,,0.00,VWS V14.01,2013-03-09 18:05:00,
2013-03-09 13:09:00,56.5,40.5,30.72,ENE,58,8.3,8.3,55,0.00,,,0.00,VWS V14.01,2013-03-09 18:09:00,
2013-03-09 13:10:00,59.0,42.4,30.72,East,94,6.3,7.6,54,0.00,,,0.00,VWS V14.01,2013-03-09 18:10:00,
2013-03-09 13:14:00,57.0,41.0,30.72,NE,46,3.1,7.6,55,0.00,,,0.00,VWS V14.01,2013-03-09 18:14:00,
2013-03-09 13:15:00,67.3,49.1,30.72,NNE,32,5.4,7.6,52,0.00,,,0.00,VWS V14.01,2013-03-09 18:15:00,
2013-03-09 13:19:00,61.2,44.4,30.72,NE,45,4.0,4.0,54,0.00,,,0.00,VWS V14.01,2013-03-09 18:19:00,
2013-03-09 13:20:00,64.6,47.1,30.72,ENE,62,5.8,7.6,53,0.00,,,0.00,VWS V14.01,2013-03-09 18:20:00,
2013-03-09 13:24:00,59.0,42.4,30.72,NE,39,3.1,5.8,54,0.00,,,0.00,VWS V14.01,2013-03-09 18:24:00,
2013-03-09 13:25:00,61.9,45.1,30.72,NE,50,6.3,8.1,54,0.00,,,0.00,VWS V14.01,2013-03-09 18:25:00,
2013-03-09 13:29:00,57.6,41.1,30.72,East,82,4.9,8.3,54,0.00,,,0.00,VWS V14.01,2013-03-09 18:29:00,
2013-03-09 13:30:00,58.3,41.7,30.72,NNE,19,0.0,8.7,54,0.00,,,0.00,VWS V14.01,2013-03-09 18:30:00,
2013-03-09 13:34:00,61.5,44.7,30.72,NNE,26,2.7,6.3,54,0.00,,,0.00,VWS V14.01,2013-03-09 18:34:00,
2013-03-09 13:35:00,57.2,40.7,30.72,North,353,4.0,8.1,54,0.00,,,0.00,VWS V14.01,2013-03-09 18:35:00,
2013-03-09 13:39:00,61.9,45.1,30.72,NNW,331,3.1,5.8,54,0.00,,,0.00,VWS V14.01,2013-03-09 18:39:00,
2013-03-09 13:40:00,60.8,44.1,30.72,ENE,60,4.9,6.3,54,0.00,,,0.00,VWS V14.01,2013-03-09 18:40:00,
2013-03-09 13:44:00,66.4,48.2,30.72,NE,51,5.8,6.3,52,0.00,,,0.00,VWS V14.01,2013-03-09 18:44:00,
2013-03-09 13:45:00,60.1,43.4,30.72,North,5,0.0,8.3,54,0.00,,,0.00,VWS V14.01,2013-03-09 18:45:00,
2013-03-09 13:49:00,61.9,45.1,30.72,ENE,71,2.7,9.2,54,0.00,,,0.00,VWS V14.01,2013-03-09 18:49:00,
2013-03-09 13:50:00,62.6,45.2,30.72,ENE,70,5.8,8.3,53,0.00,,,0.00,VWS V14.01,2013-03-09 18:50:00,
2013-03-09 13:54:00,59.7,43.1,30.72,North,349,0.0,5.8,54,0.00,,,0.00,VWS V14.01,2013-03-09 18:54:00,
2013-03-09 13:55:00,66.2,48.1,30.72,NNE,18,3.1,5.8,52,0.00,,,0.00,VWS V14.01,2013-03-09 18:55:00,
2013-03-09 13:59:00,61.2,44.4,30.72,NNW,345,4.0,6.3,54,0.00,,,0.00,VWS V14.01,2013-03-09 18:59:00,
2013-03-09 14:00:00,62.4,45.6,30.72,NNE,15,4.0,8.3,54,0.00,,,0.00,VWS V14.01,2013-03-09 19:00:00,
2013-03-09 14:04:00,57.6,41.1,30.72,NNE,17,4.9,6.3,54,0.00,,,0.00,VWS V14.01,2013-03-09 19:04:00,
2013-03-09 14:05:00,58.8,42.2,30.72,NNE,28,5.4,8.3,54,0.00,,,0.00,VWS V14.01,2013-03-09 19:05:00,
2013-03-09 14:09:00,59.4,42.7,30.72,NNE,23,0.0,7.6,54,0.00,,,0.00,VWS V14.01,2013-03-09 19:09:00,
2013-03-09 14:10:00,59.5,42.9,30.72,North,357,5.4,6.7,54,0.00,,,0.00,VWS V14.01,2013-03-09 19:10:00,
2013-03-09 14:14:00,66.2,48.1,30.72,North,8,2.7,7.6,52,0.00,,,0.00,VWS V14.01,2013-03-09 19:14:00,
2013-03-09 14:15:00,59.4,42.7,30.72,NNE,16,4.0,6.3,54,0.00,,,0.00,VWS V14.01,2013-03-09 19:15:00,
2013-03-09 14:19:00,63.9,46.4,30.72,North,357,4.0,7.6,53,0.00,,,0.00,VWS V14.01,2013-03-09 19:19:00,
2013-03-09 14:20:00,63.9,46.4,30.72,ENE,58,7.6,7.6,53,0.00,,,0.00,VWS V14.01,2013-03-09 19:20:00,
2013-03-09 14:24:00,63.1,45.8,30.72,NE,48,5.8,8.1,53,0.00,,,0.00,VWS V14.01,2013-03-09 19:24:00,
2013-03-09 14:25:00,59.4,42.7,30.72,NNE,23,6.3,11.0,54,0.00,,,0.00,VWS V14.01,2013-03-09 19:25:00,
2013-03-09 14:29:00,57.9,41.4,30.72,ESE,104,2.7,8.7,54,0.00,,,0.00,VWS V14.01,2013-03-09 19:29:00,
2013-03-09 14:30:00,55.2,39.3,30.72,NE,34,5.8,10.1,55,0.00,,,0.00,VWS V14.01,2013-03-09 19:30:00,
2013-03-09 14:34:00,57.4,40.9,30.72,NNW,333,4.9,8.1,54,0.00,,,0.00,VWS V14.01,2013-03-09 19:34:00,
2013-03-09 14:35:00,55.9,40.0,30.72,NNE,29,2.7,6.3,55,0.00,,,0.00,VWS V14.01,2013-03-09 19:35:00,
2013-03-09 14:39:00,62.4,45.6,30.72,NNW,346,2.7,6.3,54,0.00,,,0.00,VWS V14.01,2013-03-09 19:39:00,
2013-03-09 14:40:00,59.2,42.6,30.72,NE,56,5.4,8.3,54,0.00,,,0.00,VWS V14.01,2013-03-09 19:40:00,
2013-03-09 14:44:00,58.3,41.7,30.72,North,2,3.1,8.3,54,0.00,,,0.00,VWS V14.01,2013-03-09 19:44:00,
2013-03-09 14:45:00,57.4,40.9,30.72,SE,130,5.8,7.6,54,0.00,,,0.00,VWS V14.01,2013-03-09 19:45:00,
2013-03-09 14:49:00,62.2,45.4,30.72,ENE,66,8.3,8.3,54,0.00,,,0.00,VWS V14.01,2013-03-09 19:49:00,
2013-03-09 14:50:00,54.7,38.8,30.72,NE,54,4.0,5.8,55,0.00,,,0.00,VWS V14.01,2013-03-09 19:50:00,
2013-03-09 14:54:00,65.5,47.9,30.72,North,2,3.6,5.8,53,0.00,,,0.00,VWS V14.01,2013-03-09 19:54:00,
2013-03-09 14:55:00,54.9,39.0,30.72,NE,35,0.0,5.8,55,0.00,,,0.00,VWS V14.01,2013-03-09 19:55:00,
2013-03-09 14:59:00,62.4,45.6,30.72,ENE,58,7.6,8.1,54,0.00,,,0.00,VWS V14.01,2013-03-09 19:59:00,
2013-03-09 15:00:00,53.4,38.1,30.72,North,350,2.2,4.0,56,0.00,,,0.00,VWS V14.01,2013-03-09 20:00:00,
2013-03-09 15:04:00,58.8,42.2,30.72,North,7,3.6,8.3,54,0.00,,,0.00,VWS V14.01,2013-03-09 20:04:00,
2013-03-09 15:05:00,52.3,37.1,30.72,NNE,32,0.0,8.1,56,0.00,,,0.00,VWS V14.01,2013-03-09 20:05:00,
2013-03-09 15:09:00,59.9,43.2,30.72,North,4,3.6,5.4,54,0.00,,,0.00,VWS V14.01,2013-03-09 20:09:00,
2013-03-09 15:10:00,52.0,36.8,30.72,North,357,4.0,5.8,56,0.00,,,0.00,VWS V14.01,2013-03-09 20:10:00,
2013-03-09 15:14:00,58.8,42.2,30.72,NNE,28,3.1,6.3,54,0.00,,,0.00,VWS V14.01,2013-03-09 20:14:00,
2013-03-09 15:15:00,51.3,36.1,30.72,NE,56,4.9,6.3,56,0.00,,,0.00,VWS V14.01,2013-03-09 20:15:00,
2013-03-09 15:19:00,63.9,46.4,30.72,SE,131,2.7,6.3,53,0.00,,,0.00,VWS V14.01,2013-03-09 20:19:00,
2013-03-09 15:20:00,50.7,35.6,30.72,NNE,25,3.1,6.3,56,0.00,,,0.00,VWS V14.01,2013-03-09 20:20:00,
2013-03-09 15:24:00,58.1,41.6,30.72,NE,51,4.0,11.0,54,0.00,,,0.00,VWS V14.01,2013-03-09 20:24:00,
2013-03-09 15:25:00,50.9,35.8,30.72,NE,48,4.0,5.8,56,0.00,,,0.00,VWS V14.01,2013-03-09 20:25:00,
2013-03-09 15:29:00,55.6,39.7,30.72,NE,42,10.1,10.1,55,0.00,,,0.00,VWS V14.01,2013-03-09 20:29:00,
2013-03-09 15:30:00,51.1,36.0,30.72,NNE,32,6.3,6.3,56,0.00,,,0.00,VWS V14.01,2013-03-09 20:30:00,
2013-03-09 15:34:00,55.9,40.0,30.72,ENE,60,3.6,6.3,55,0.00,,,0.00,VWS V14.01,2013-03-09 20:34:00,
2013-03-09 15:35:00,50.4,35.3,30.72,NE,42,5.4,6.3,56,0.00,,,0.00,VWS V14.01,2013-03-09 20:35:00,
2013-03-09 15:39:00,59.2,42.6,30.72,NE,56,5.4,8.3,54,0.00,,,0.00,VWS V14.01,2013-03-09 20:39:00,
2013-03-09 15:40:00,50.2,35.1,30.72,North,357,5.8,8.1,56,0.00,,,0.00,VWS V14.01,2013-03-09 20:40:00,
2013-03-09 15:44:00,57.4,40.9,30.72,East,86,7.6,7.6,54,0.00,,,0.00,VWS V14.01,2013-03-09 20:44:00,
2013-03-09 15:45:00,50.2,35.1,30.72,NNW,343,4.9,5.8,56,0.00,,,0.00,VWS V14.01,2013-03-09 20:45:00,
2013-03-09 15:49:00,56.3,40.4,30.72,NW,326,3.1,5.8,55,0.00,,,0.00,VWS V14.01,2013-03-09 20:49:00,
2013-03-09 15:50:00,50.9,35.8,30.72,NNE,31,4.0,8.3,56,0.00,,,0.00,VWS V14.01,2013-03-09 20:50:00,
2013-03-09 15:54:00,54.9,39.0,30.72,NNE,23,2.7,5.8,55,0.00,,,0.00,VWS V14.01,2013-03-09 20:54:00,
2013-03-09 15:55:00,50.9,35.8,30.72,NNE,21,2.7,4.0,56,0.00,,,0.00,VWS V14.01,2013-03-09 20:55:00,
2013-03-09 15:59:00,53.4,38.1,30.72,North,353,2.2,4.0,56,0.00,,,0.00,VWS V14.01,2013-03-09 20:59:00,
2013-03-09 16:00:00,50.5,35.4,30.72,NNE,24,4.0,5.8,56,0.00,,,0.00,VWS V14.01,2013-03-09 21:00:00,
2013-03-09 16:04:00,52.3,37.1,30.72,NNE,32,0.0,8.1,56,0.00,,,0.00,VWS V14.01,2013-03-09 21:04:00,
2013-03-09 16:05:00,51.1,36.0,30.72,NNE,17,2.7,4.0,56,0.00,,,0.00,VWS V14.01,2013-03-09 21:05:00,
2013-03-09 16:09:00,52.0,36.8,30.72,North,357,4.0,5.8,56,0.00,,,0.00,VWS V14.01,2013-03-09 21:09:00,
2013-03-09 16:10:00,50.0,34.9,30.72,NNE,14,3.1,4.0,56,0.00,,,0.00,VWS V14.01,2013-03-09 21:10:00,
2013-03-09 16:14:00,51.3,36.1,30.72,ENE,60,4.0,6.3,56,0.00,,,0.00,VWS V14.01,2013-03-09 21:14:00,
2013-03-09 16:15:00,48.7,33.8,30.72,NNE,25,3.1,8.3,56,0.00,,,0.00,VWS V14.01,2013-03-09 21:15:00,
2013-03-09 16:19:00,50.7,35.6,30.72,NNE,25,3.1,6.3,56,0.00,,,0.00,VWS V14.01,2013-03-09 21:19:00,
2013-03-09 16:20:00,46.9,32.5,30.72,East,88,0.0,3.6,57,0.00,,,0.00,VWS V14.01,2013-03-09 21:20:00,
2013-03-09 16:24:00,50.9,35.8,30.72,NE,48,4.0,5.8,56,0.00,,,0.00,VWS V14.01,2013-03-09 21:24:00,
2013-03-09 16:25:00,45.1,30.8,30.72,NE,54,0.0,4.0,57,0.00,,,0.00,VWS V14.01,2013-03-09 21:25:00,
2013-03-09 16:29:00,51.1,36.0,30.72,NNE,32,6.3,6.3,56,0.00,,,0.00,VWS V14.01,2013-03-09 21:29:00,
2013-03-09 16:30:00,44.1,30.2,30.72,NE,36,0.0,3.6,58,0.00,,,0.00,VWS V14.01,2013-03-09 21:30:00,
2013-03-09 16:34:00,50.4,35.3,30.72,NE,42,5.4,6.3,56,0.00,,,0.00,VWS V14.01,2013-03-09 21:34:00,
2013-03-09 16:35:00,43.0,29.2,30.72,NE,43,0.0,0.0,58,0.00,,,0.00,VWS V14.01,2013-03-09 21:35:00,
2013-03-09 16:39:00,50.2,35.1,30.72,NNE,18,6.3,8.1,56,0.00,,,0.00,VWS V14.01,2013-03-09 21:39:00,
2013-03-09 16:40:00,42.3,28.5,30.72,ENE,73,0.0,4.5,58,0.00,,,0.00,VWS V14.01,2013-03-09 21:40:00,
2013-03-09 16:44:00,50.2,35.1,30.72,North,0,5.4,5.8,56,0.00,,,0.00,VWS V14.01,2013-03-09 21:44:00,
2013-03-09 16:45:00,41.4,27.7,30.72,ENE,77,0.0,0.0,58,0.00,,,0.00,VWS V14.01,2013-03-09 21:45:00,
2013-03-09 16:49:00,50.9,35.8,30.72,NNE,31,4.0,8.3,56,0.00,,,0.00,VWS V14.01,2013-03-09 21:49:00,
2013-03-09 16:50:00,41.0,27.4,30.72,ENE,58,0.0,0.0,58,0.00,,,0.00,VWS V14.01,2013-03-09 21:50:00,
2013-03-09 16:55:00,50.9,35.8,30.72,NNE,21,2.7,4.0,56,0.00,,,0.00,VWS V14.01,2013-03-09 21:55:00,
2013-03-09 17:00:00,50.5,35.4,30.72,NE,42,4.0,5.8,56,0.00,,,0.00,VWS V14.01,2013-03-09 22:00:00,
2013-03-09 17:05:00,51.1,36.0,30.72,NNE,17,2.7,4.0,56,0.00,,,0.00,VWS V14.01,2013-03-09 22:05:00,
2013-03-09 17:10:00,50.0,34.9,30.72,NNE,14,3.1,4.0,56,0.00,,,0.00,VWS V14.01,2013-03-09 22:10:00,
2013-03-09 17:15:00,48.7,33.8,30.72,NNE,25,3.1,8.3,56,0.00,,,0.00,VWS V14.01,2013-03-09 22:15:00,
2013-03-09 17:20:00,46.9,32.5,30.72,East,88,0.0,3.6,57,0.00,,,0.00,VWS V14.01,2013-03-09 22:20:00,
2013-03-09 17:25:00,45.1,30.8,30.72,NE,54,0.0,4.0,57,0.00,,,0.00,VWS V14.01,2013-03-09 22:25:00,
2013-03-09 17:30:00,44.1,30.2,30.72,NE,36,0.0,3.6,58,0.00,,,0.00,VWS V14.01,2013-03-09 22:30:00,
2013-03-09 17:35:00,43.0,29.2,30.72,NE,43,0.0,0.0,58,0.00,,,0.00,VWS V14.01,2013-03-09 22:35:00,
2013-03-09 17:40:00,42.3,28.5,30.72,ENE,73,0.0,4.5,58,0.00,,,0.00,VWS V14.01,2013-03-09 22:40:00,
2013-03-09 17:45:00,41.4,27.7,30.72,NNE,23,0.0,0.0,58,0.00,,,0.00,VWS V14.01,2013-03-09 22:45:00,
2013-03-09 17:50:00,41.0,27.4,30.72,ENE,58,0.0,0.0,58,0.00,,,0.00,VWS V14.01,2013-03-09 22:50:00,
2013-03-09 17:55:00,41.7,28.0,30.72,NNE,21,0.0,0.0,58,0.00,,,0.00,VWS V14.01,2013-03-09 22:55:00,
2013-03-09 18:00:00,41.7,28.0,30.72,NNE,25,0.0,0.0,58,0.00,,,0.00,VWS V14.01,2013-03-09 23:00:00,
2013-03-09 18:05:00,41.7,28.0,30.72,NNE,33,4.0,5.4,58,0.00,,,0.00,VWS V14.01,2013-03-09 23:05:00,
2013-03-09 18:10:00,41.4,27.7,30.72,NE,41,0.0,3.6,58,0.00,,,0.00,VWS V14.01,2013-03-09 23:10:00,
2013-03-09 18:15:00,40.6,27.0,30.72,NNE,20,0.0,0.0,58,0.00,,,0.00,VWS V14.01,2013-03-09 23:15:00,
2013-03-09 18:20:00,39.9,26.4,30.72,NE,42,0.0,3.6,58,0.00,,,0.00,VWS V14.01,2013-03-09 23:20:00,
2013-03-09 18:25:00,39.2,25.7,30.72,ENE,64,2.7,2.7,58,0.00,,,0.00,VWS V14.01,2013-03-09 23:25:00,
2013-03-09 18:30:00,39.0,25.9,30.72,NNE,27,2.2,3.6,59,0.00,,,0.00,VWS V14.01,2013-03-09 23:30:00,
2013-03-09 18:35:00,39.4,25.9,30.72,NE,44,0.0,0.0,58,0.00,,,0.00,VWS V14.01,2013-03-09 23:35:00,
2013-03-09 18:40:00,39.0,25.9,30.72,NE,47,0.0,0.0,59,0.00,,,0.00,VWS V14.01,2013-03-09 23:40:00,
2013-03-09 18:45:00,38.1,25.1,30.72,East,83,2.7,4.0,59,0.00,,,0.00,VWS V14.01,2013-03-09 23:45:00,
2013-03-09 18:50:00,37.6,24.6,30.72,NE,47,3.6,3.6,59,0.00,,,0.00,VWS V14.01,2013-03-09 23:50:00,
2013-03-09 18:55:00,37.4,24.4,30.72,ESE,105,3.1,3.1,59,0.00,,,0.00,VWS V14.01,2013-03-09 23:55:00,
2013-03-09 19:00:00,37.2,24.2,30.72,SE,136,2.7,2.7,59,0.00,,,0.00,VWS V14.01,2013-03-10 00:00:00,
2013-03-09 19:05:00,37.2,24.2,30.72,ESE,114,0.0,0.0,59,0.00,,,0.00,VWS V14.01,2013-03-10 00:05:00,
2013-03-09 19:10:00,37.0,24.1,30.72,SE,146,0.0,0.0,59,0.00,,,0.00,VWS V14.01,2013-03-10 00:10:00,
2013-03-09 19:15:00,36.9,23.9,30.72,SSE,167,0.0,0.0,59,0.00,,,0.00,VWS V14.01,2013-03-10 00:15:00,
2013-03-09 19:20:00,36.9,23.9,30.72,SSE,160,0.0,0.0,59,0.00,,,0.00,VWS V14.01,2013-03-10 00:20:00,
2013-03-09 19:25:00,37.2,24.2,30.72,ENE,61,2.7,2.7,59,0.00,,,0.00,VWS V14.01,2013-03-10 00:25:00,
2013-03-09 19:30:00,36.7,23.7,30.72,East,79,0.0,0.0,59,0.00,,,0.00,VWS V14.01,2013-03-10 00:30:00,
2013-03-09 19:35:00,36.1,23.2,30.72,ENE,77,3.6,3.6,59,0.00,,,0.00,VWS V14.01,2013-03-10 00:35:00,
2013-03-09 19:40:00,35.6,22.7,30.72,ENE,64,2.2,3.6,59,0.00,,,0.00,VWS V14.01,2013-03-10 00:40:00,
2013-03-09 19:45:00,35.2,22.8,30.72,ENE,58,0.0,0.0,60,0.00,,,0.00,VWS V14.01,2013-03-10 00:45:00,
2013-03-09 19:50:00,34.7,22.2,30.72,North,357,0.0,0.0,60,0.00,,,0.00,VWS V14.01,2013-03-10 00:50:00,
2013-03-09 19:55:00,35.1,22.6,30.72,NE,45,0.0,0.0,60,0.00,,,0.00,VWS V14.01,2013-03-10 00:55:00,
2013-03-09 20:00:00,35.2,22.8,30.72,NNE,27,5.4,5.4,60,0.00,,,0.00,VWS V14.01,2013-03-10 01:00:00,
2013-03-09 20:05:00,35.8,22.9,30.72,NE,49,5.8,5.8,59,0.00,,,0.00,VWS V14.01,2013-03-10 01:05:00,
2013-03-09 20:10:00,35.4,22.9,30.72,NNE,33,0.0,0.0,60,0.00,,,0.00,VWS V14.01,2013-03-10 01:10:00,
2013-03-09 20:15:00,34.5,22.1,30.72,NE,38,0.0,0.0,60,0.00,,,0.00,VWS V14.01,2013-03-10 01:15:00,
2013-03-09 20:20:00,34.3,21.9,30.72,NE,52,0.0,0.0,60,0.00,,,0.00,VWS V14.01,2013-03-10 01:20:00,
2013-03-09 20:25:00,34.2,21.7,30.72,NE,34,0.0,0.0,60,0.00,,,0.00,VWS V14.01,2013-03-10 01:25:00,
2013-03-09 20:30:00,34.2,21.7,30.72,NE,56,4.9,4.9,60,0.00,,,0.00,VWS V14.01,2013-03-10 01:30:00,
2013-03-09 20:35:00,34.0,21.6,30.72,ENE,63,4.0,4.0,60,0.00,,,0.00,VWS V14.01,2013-03-10 01:35:00,
2013-03-09 20:40:00,34.0,21.6,30.72,NE,53,0.0,0.0,60,0.00,,,0.00,VWS V14.01,2013-03-10 01:40:00,
2013-03-09 20:45:00,33.6,21.2,30.72,North,357,0.0,3.6,60,0.00,,,0.00,VWS V14.01,2013-03-10 01:45:00,
2013-03-09 20:50:00,33.6,21.2,30.72,East,82,3.6,3.6,60,0.00,,,0.00,VWS V14.01,2013-03-10 01:50:00,
2013-03-09 20:55:00,33.6,21.2,30.72,NE,50,0.0,5.8,60,0.00,,,0.00,VWS V14.01,2013-03-10 01:55:00,
2013-03-09 21:00:00,33.1,20.7,30.72,NNE,33,0.0,0.0,60,0.00,,,0.00,VWS V14.01,2013-03-10 02:00:00,
2013-03-09 21:05:00,32.9,20.5,30.72,NE,39,0.0,3.6,60,0.00,,,0.00,VWS V14.01,2013-03-10 02:05:00,
2013-03-09 21:10:00,32.7,20.4,30.72,NE,45,3.6,3.6,60,0.00,,,0.00,VWS V14.01,2013-03-10 02:10:00,
2013-03-09 21:15:00,29.3,17.1,30.72,NNE,22,0.0,3.1,60,0.00,,,0.00,VWS V14.01,2013-03-10 02:15:00,
2013-03-09 21:16:00,32.5,20.2,30.72,NE,44,0.0,0.0,60,0.00,,,0.00,VWS V14.01,2013-03-10 02:16:00,
2013-03-09 21:20:00,29.5,17.3,30.72,NE,37,0.0,4.0,60,0.00,,,0.00,VWS V14.01,2013-03-10 02:20:00,
2013-03-09 21:21:00,32.5,20.2,30.72,NE,43,0.0,0.0,60,0.00,,,0.00,VWS V14.01,2013-03-10 02:21:00,
2013-03-09 21:25:00,28.6,16.5,30.72,NE,38,0.0,0.0,60,0.00,,,0.00,VWS V14.01,2013-03-10 02:25:00,
2013-03-09 21:26:00,32.4,20.0,30.72,NE,43,0.0,0.0,60,0.00,,,0.00,VWS V14.01,2013-03-10 02:26:00,
2013-03-09 21:30:00,28.8,16.6,30.72,NE,55,0.0,2.2,60,0.00,,,0.00,VWS V14.01,2013-03-10 02:30:00,
2013-03-09 21:31:00,31.8,19.5,30.72,NNE,29,0.0,0.0,60,0.00,,,0.00,VWS V14.01,2013-03-10 02:31:00,
2013-03-09 21:35:00,29.5,17.3,30.72,NE,38,0.0,4.0,60,0.00,,,0.00,VWS V14.01,2013-03-10 02:35:00,
2013-03-09 21:36:00,31.6,19.4,30.72,NE,40,0.0,0.0,60,0.00,,,0.00,VWS V14.01,2013-03-10 02:36:00,
2013-03-09 21:40:00,29.7,17.5,30.72,NE,40,0.0,0.0,60,0.00,,,0.00,VWS V14.01,2013-03-10 02:40:00,
2013-03-09 21:41:00,31.1,18.9,30.69,NE,40,0.0,0.0,60,0.00,,,0.00,VWS V14.01,2013-03-10 02:41:00,
2013-03-09 21:45:00,29.7,17.5,30.72,NNE,30,0.0,0.0,60,0.00,,,0.00,VWS V14.01,2013-03-10 02:45:00,
2013-03-09 21:46:00,32.2,19.9,30.69,NNE,33,0.0,0.0,60,0.00,,,0.00,VWS V14.01,2013-03-10 02:46:00,
2013-03-09 21:50:00,29.5,17.3,30.72,NNE,23,0.0,2.2,60,0.00,,,0.00,VWS V14.01,2013-03-10 02:50:00,
2013-03-09 21:51:00,32.2,19.9,30.69,NE,50,0.0,3.6,60,0.00,,,0.00,VWS V14.01,2013-03-10 02:51:00,
2013-03-09 21:55:00,29.3,17.1,30.69,NNE,15,0.0,0.0,60,0.00,,,0.00,VWS V14.01,2013-03-10 02:55:00,
2013-03-09 21:56:00,31.6,19.4,30.69,NE,34,0.0,0.0,60,0.00,,,0.00,VWS V14.01,2013-03-10 02:56:00,
2013-03-09 22:00:00,29.5,17.3,30.69,North,353,0.0,0.0,60,0.00,,,0.00,VWS V14.01,2013-03-10 03:00:00,
2013-03-09 22:01:00,31.1,18.9,30.69,NNE,30,0.0,0.0,60,0.00,,,0.00,VWS V14.01,2013-03-10 03:01:00,
2013-03-09 22:05:00,29.5,17.3,30.69,North,353,0.0,0.0,60,0.00,,,0.00,VWS V14.01,2013-03-10 03:05:00,
2013-03-09 22:06:00,30.2,18.0,30.69,NE,48,0.0,0.0,60,0.00,,,0.00,VWS V14.01,2013-03-10 03:06:00,
2013-03-09 22:10:00,29.5,17.3,30.69,North,353,0.0,0.0,60,0.00,,,0.00,VWS V14.01,2013-03-10 03:10:00,
2013-03-09 22:11:00,29.1,17.0,30.72,ENE,66,3.1,3.1,60,0.00,,,0.00,VWS V14.01,2013-03-10 03:11:00,
2013-03-09 22:15:00,29.5,17.3,30.69,North,0,0.0,0.0,60,0.00,,,0.00,VWS V14.01,2013-03-10 03:15:00,
2013-03-09 22:16:00,29.5,17.3,30.72,NNE,22,0.0,0.0,60,0.00,,,0.00,VWS V14.01,2013-03-10 03:16:00,
2013-03-09 22:20:00,28.9,16.8,30.69,North,0,0.0,0.0,60,0.00,,,0.00,VWS V14.01,2013-03-10 03:20:00,
2013-03-09 22:21:00,28.8,16.6,30.72,NE,38,0.0,0.0,60,0.00,,,0.00,VWS V14.01,2013-03-10 03:21:00,
2013-03-09 22:25:00,28.4,16.7,30.72,North,0,0.0,0.0,61,0.00,,,0.00,VWS V14.01,2013-03-10 03:25:00,
2013-03-09 22:26:00,28.6,16.5,30.72,NE,38,0.0,0.0,60,0.00,,,0.00,VWS V14.01,2013-03-10 03:26:00,
2013-03-09 22:30:00,28.2,16.5,30.72,North,0,0.0,0.0,61,0.00,,,0.00,VWS V14.01,2013-03-10 03:30:00,
2013-03-09 22:31:00,29.3,17.1,30.72,NE,49,3.6,4.0,60,0.00,,,0.00,VWS V14.01,2013-03-10 03:31:00,
2013-03-09 22:35:00,27.9,16.2,30.72,North,0,0.0,0.0,61,0.00,,,0.00,VWS V14.01,2013-03-10 03:35:00,
2013-03-09 22:36:00,29.5,17.3,30.72,North,357,0.0,0.0,60,0.00,,,0.00,VWS V14.01,2013-03-10 03:36:00,
2013-03-09 22:40:00,27.3,15.7,30.72,North,0,0.0,0.0,61,0.00,,,0.00,VWS V14.01,2013-03-10 03:40:00,
2013-03-09 22:41:00,29.7,17.5,30.72,ENE,64,0.0,0.0,60,0.00,,,0.00,VWS V14.01,2013-03-10 03:41:00,
2013-03-09 22:45:00,27.0,15.3,30.72,North,0,0.0,0.0,61,0.00,,,0.00,VWS V14.01,2013-03-10 03:45:00,
2013-03-09 22:46:00,29.5,17.3,30.72,NNE,30,0.0,0.0,60,0.00,,,0.00,VWS V14.01,2013-03-10 03:46:00,
2013-03-09 22:50:00,26.6,15.0,30.72,North,0,0.0,0.0,61,0.00,,,0.00,VWS V14.01,2013-03-10 03:50:00,
2013-03-09 22:51:00,29.5,17.3,30.72,North,353,0.0,0.0,60,0.00,,,0.00,VWS V14.01,2013-03-10 03:51:00,
2013-03-09 22:55:00,26.4,14.8,30.72,North,0,0.0,0.0,61,0.00,,,0.00,VWS V14.01,2013-03-10 03:55:00,
2013-03-09 22:56:00,29.3,17.1,30.69,NNE,14,0.0,0.0,60,0.00,,,0.00,VWS V14.01,2013-03-10 03:56:00,
2013-03-09 23:00:00,26.1,14.5,30.72,North,0,0.0,0.0,61,0.00,,,0.00,VWS V14.01,2013-03-10 04:00:00,
2013-03-09 23:01:00,29.5,17.3,30.69,North,353,0.0,0.0,60,0.00,,,0.00,VWS V14.01,2013-03-10 04:01:00,
2013-03-09 23:05:00,25.5,14.0,30.72,North,0,0.0,0.0,61,0.00,,,0.00,VWS V14.01,2013-03-10 04:05:00,
2013-03-09 23:06:00,29.5,17.3,30.69,North,353,0.0,0.0,60,0.00,,,0.00,VWS V14.01,2013-03-10 04:06:00,
2013-03-09 23:10:00,25.0,13.4,30.69,North,0,0.0,0.0,61,0.00,,,0.00,VWS V14.01,2013-03-10 04:10:00,
2013-03-09 23:11:00,29.5,17.3,30.69,North,0,0.0,0.0,60,0.00,,,0.00,VWS V14.01,2013-03-10 04:11:00,
2013-03-09 23:15:00,24.8,13.6,30.69,North,0,0.0,0.0,62,0.00,,,0.00,VWS V14.01,2013-03-10 04:15:00,
2013-03-09 23:16:00,29.3,17.1,30.69,North,0,0.0,0.0,60,0.00,,,0.00,VWS V14.01,2013-03-10 04:16:00,
2013-03-09 23:20:00,25.0,13.4,30.69,North,0,0.0,0.0,61,0.00,,,0.00,VWS V14.01,2013-03-10 04:20:00,
2013-03-09 23:21:00,28.9,16.8,30.69,North,0,0.0,0.0,60,0.00,,,0.00,VWS V14.01,2013-03-10 04:21:00,
2013-03-09 23:25:00,25.2,13.6,30.69,North,0,0.0,0.0,61,0.00,,,0.00,VWS V14.01,2013-03-10 04:25:00,
2013-03-09 23:26:00,28.2,16.5,30.72,North,0,0.0,0.0,61,0.00,,,0.00,VWS V14.01,2013-03-10 04:26:00,
2013-03-09 23:30:00,25.3,13.8,30.69,North,0,0.0,0.0,61,0.00,,,0.00,VWS V14.01,2013-03-10 04:30:00,
2013-03-09 23:31:00,28.0,16.3,30.72,North,0,0.0,0.0,61,0.00,,,0.00,VWS V14.01,2013-03-10 04:31:00,
2013-03-09 23:35:00,26.4,14.8,30.69,North,0,0.0,0.0,61,0.00,,,0.00,VWS V14.01,2013-03-10 04:35:00,
2013-03-09 23:36:00,27.9,16.2,30.72,North,0,0.0,0.0,61,0.00,,,0.00,VWS V14.01,2013-03-10 04:36:00,
2013-03-09 23:40:00,26.1,14.5,30.72,North,0,0.0,0.0,61,0.00,,,0.00,VWS V14.01,2013-03-10 04:40:00,
2013-03-09 23:41:00,27.1,15.5,30.72,North,0,0.0,0.0,61,0.00,,,0.00,VWS V14.01,2013-03-10 04:41:00,
2013-03-09 23:45:00,25.5,14.0,30.72,North,0,0.0,0.0,61,0.00,,,0.00,VWS V14.01,2013-03-10 04:45:00,
2013-03-09 23:46:00,26.8,15.1,30.72,North,0,0.0,0.0,61,0.00,,,0.00,VWS V14.01,2013-03-10 04:46:00,
2013-03-09 23:50:00,25.0,13.4,30.72,North,357,0.0,0.0,61,0.00,,,0.00,VWS V14.01,2013-03-10 04:50:00,
2013-03-09 23:51:00,26.6,15.0,30.72,North,0,0.0,0.0,61,0.00,,,0.00,VWS V14.01,2013-03-10 04:51:00,
2013-03-09 23:55:00,25.0,13.4,30.72,North,353,0.0,0.0,61,0.00,,,0.00,VWS V14.01,2013-03-10 04:55:00,
2013-03-09 23:56:00,26.4,14.8,30.72,North,0,0.0,0.0,61,0.00,,,0.00,VWS V14.01,2013-03-10 04:56:00,